ROMMA est une association bénévole à but non lucratif. Votre soutien est indispensable : ADHERER à ROMMA ou FAIRE un DON

Challes-les-Eaux - (73, Savoie)

Trouée des Marches (325 m)   Longitude: 05° 58' E   Latitude: 45° 32' N Station romma n°148
 

Détail journalier du     <<     >>

Température Precipitation Humidité Pression Vent Dir Rafale Dir. rafale
Heure (°C) (mm) (%) (hPa) (km/h) (km/h)
01:00 14.008810201S6S
02:00 13.409110201SSE5SSE
03:00 13.708910201SSE8SSE
04:00 13.508810192ESE10ESE
05:00 13.108910193ESE13ESE
06:00 13.308610194ESE13SE
07:00 13.208510195ESE15ESE
08:00 13.208410185ESE15ESE
09:00 13.308410192ESE10ESE
10:00 16.907510192ESE11ESE
11:00 17.407210191ENE6ENE
12:00 19.506810192ONO6ONO
13:00 19.806910191NO5NO
14:00 23.006110183NNE8NNO
15:00 23.906110173N13ONO
16:00 24.306110174NNO15O
17:00 23.805910166NNO16N
18:00 22.606010167N23NNO
19:00 20.806510166N18N
20:00 20.106710175NNE18N
21:00 19.406910175NNE16NNE
22:00 18.907110184N15N
23:00 18.607310195N18N
minuit 18.307610196N18NNO

Graphique du 13-10-2019

 

Serveur OMMA